Regional Weather Roundup
Issued by NWS

Home | Current Version | Previous Version | Text Only | Print | Product List | Glossary Off
Versions: 1 2 3 4 5 6 7 8 9 10 11 12 13 14 15 16 17 18 19 20 21 22 23 24 25 26 27 28 29 30 31 32 33 34 35 36 37 38 39 40 41 42 43 44 45 46 47 48 49 50

000
ASUS43 KLSX 250507
RWRMO

WEATHER SUMMARY FOR MISSOURI
NATIONAL WEATHER SERVICE SPRINGFIELD MO
1200 AM CDT WED MAY 25 2016

NOTE: "FAIR" INDICATES FEW OR NO CLOUDS BELOW 12,000 FEET WITH NO
       SIGNIFICANT WEATHER AND/OR OBSTRUCTIONS TO VISIBILITY.
       CURRENT SKY AND/OR WEATHER CONDITIONS ARE NOT AVAILABLE FOR
       CHILLICOTHE AND FARMINGTON.

MOZ001>031-035>038-043-044-053-054-250600-
...NORTHERN AND WESTERN MISSOURI...

CITY           SKY/WX    TMP DP  RH WIND       PRES   REMARKS
KANSAS CTY INT CLOUDY    71  67  87 SE7       29.91R
KANSAS C DTWN  CLOUDY    73  66  78 SE6       29.90R
LEE`S SUMMIT   CLOUDY    68  62  81 SE8       29.92R
ST JOSEPH      CLOUDY    73  65  75 SE9       29.90R
CHILLICOTHE      N/A     70  65  84 S6        29.94S
KIRKSVILLE     CLOUDY    65  63  93 S6        29.96S

$$
MOZ066>068-077>081-088>096-101>105-250600-
...SOUTHWEST MISSOURI...

CITY           SKY/WX    TMP DP  RH WIND       PRES   REMARKS
SPRINGFIELD    CLOUDY    66  62  87 SE20G28   29.92F
JOPLIN         PTCLDY    70  67  90 S3        29.93R

$$
MOZ032>034-039>042-045>050-055>058-069>072-250600-
...CENTRAL MISSOURI...

CITY           SKY/WX    TMP DP  RH WIND       PRES   REMARKS
COLUMBIA       CLOUDY    63  62  97 SE9       29.99R
JEFFERSON CITY CLOUDY    64  62  93 E7        29.98R
ROLLA          CLOUDY    61  60  97 S8        29.99R
SEDALIA        CLOUDY    65  61  87 SE7       29.95F
WHITEMAN AFB   MOCLDY    64  64 100 SE7       29.91F
WARRENSBURG    CLOUDY    64  61  88 E5        29.91F

$$
MOZ051-052-059>065-250600-
...EAST CENTRAL MISSOURI...

CITY           SKY/WX    TMP DP  RH WIND       PRES   REMARKS
ST LOUIS INTL  CLOUDY    69  62  78 S7        30.00F
SPIRIT OF STL  PTCLDY    64  62  93 CALM      29.99S
ST CHARLES     CLOUDY    65  61  87 SE5       29.99S

$$
MOZ072>076-082>087-097>100-106>115-250600-
...SOUTH CENTRAL AND SOUTHEAST MISSOURI...

CITY           SKY/WX    TMP DP  RH WIND       PRES   REMARKS
CAPE GIRARDEAU CLOUDY    65  63  93 CALM      30.04R
FARMINGTON     CLOUDY    62  60  93 SE6       30.04S
POPLAR BLUFF   CLOUDY    66  62  87 SW7       30.03R
WEST PLAINS    CLOUDY    63  59  87 SW7       30.05S

$$



USA.gov is the U.S. government's official web portal to all federal, state and local government web resources and services.